Weather History for Kars, Turkey

Change the Weather History Date:

Tuesday, February 18, 2014

  Actual Average Record
Temperature  
Mean Temperature 22 °F -  
Max Temperature 37 °F 32 °F - ()
Min Temperature 8 °F 14 °F - ()
Degree Days  
Heating Degree Days 42    
Moisture  
Dew Point 20 °F    
Average Humidity 74    
Maximum Humidity 86    
Minimum Humidity 53    
Precipitation  
Precipitation 0.00 in 0.03 in - ()
Sea Level Pressure  
Sea Level Pressure 30.16 in    
Wind  
Wind Speed 5 mph ()    
Max Wind Speed 21 mph    
Max Gust Speed -    
Visibility 6.1 miles    
Events      
T = Trace of Precipitation, MM = Missing Value Source: Averaged Metar Reports

Daily Weather History Graph

Daily Weather History Graph

Search for Another Location

Airport:

Trip Planner

Search our weather history database for the weather conditions in past years. The results will help you decide how hot, cold, wet, or windy it might be!

Date:

Astronomy

Feb. 18, 2014 Rise Set
Actual Time 5:57 AM EET 4:45 PM EET
Civil Twilight 5:29 AM EET 5:13 PM EET
Nautical Twilight 4:58 AM EET 5:45 PM EET
Astronomical Twilight 4:26 AM EET 6:17 PM EET
Moon 8:18 PM EET (2/18) 7:17 AM EET (2/18)
Length of Visible Light 11h 43m
Length of Day
10h 48m
Waning Gibbous, 89% of the Moon is Illuminated
Feb 18
Waning Gibbous
Feb 22
Last Quarter
Mar 1
New
Mar 8
First Quarter
Mar 16
Full

Hourly Weather History & Observations

Time (EET) Temp. Windchill Dew Point Humidity Pressure Visibility Wind Dir Wind Speed Gust Speed Precip Events Conditions
12:50 AM 15.8 °F 8.6 °F 12.2 °F 86% 30.18 in - WNW 4.6 mph - N/A   Clear
1:50 AM 17.6 °F - 14.0 °F 86% 30.18 in - Variable 1.2 mph - N/A   Clear
2:00 AM 17 °F - 14 °F 84%  in 6 mi West 1.2 mph - -  
2:50 AM 17.6 °F 8.2 °F 14.0 °F 86% 30.18 in - NW 6.9 mph - N/A   Clear
3:50 AM 14.0 °F 6.5 °F 10.4 °F 86% 30.18 in - SE 4.6 mph - N/A   Clear
4:50 AM 17.6 °F - 14.0 °F 86% 30.18 in - Calm Calm - N/A   Clear
5:00 AM 18 °F - 15 °F 84%  in 6 mi Calm Calm - -  
5:50 AM 23.0 °F 17.0 °F 15.8 °F 74% 30.18 in - SW 4.6 mph - N/A   Clear
6:50 AM 15.8 °F 6.1 °F 10.4 °F 79% 30.18 in - West 6.9 mph - N/A   Clear
7:50 AM 23.0 °F 18.4 °F 15.8 °F 74% 30.18 in 6.2 mi SW 3.5 mph - N/A   Partly Cloudy
8:00 AM 23 °F - 16 °F 64%  in 6 mi SW 3.5 mph - -   Scattered Clouds
8:50 AM 28.4 °F 18.5 °F 19.4 °F 69% 30.18 in 6.2 mi West 11.5 mph - N/A   Scattered Clouds
9:50 AM 28.4 °F 23.3 °F 19.4 °F 69% 30.18 in 6.2 mi WNW 4.6 mph - N/A   Scattered Clouds
10:50 AM 30.2 °F - 21.2 °F 69% 30.18 in 6.2 mi Calm Calm - N/A   Mostly Cloudy
11:00 AM 31 °F - 20 °F 53%  in 6 mi Calm Calm - -   Partly Cloudy
11:50 AM 33.8 °F 28.6 °F 24.8 °F 70% 30.15 in 6.2 mi West 5.8 mph - N/A   Mostly Cloudy
12:50 PM 35.6 °F - 23.0 °F 60% 30.15 in 6.2 mi Calm Calm - N/A   Mostly Cloudy
1:50 PM 35.6 °F 29.2 °F 26.6 °F 70% 30.15 in 6.2 mi SSW 8.1 mph - N/A   Mostly Cloudy
2:00 PM 36 °F - 26 °F 57%  in 6 mi SSW 8.1 mph - -   Partly Cloudy
2:50 PM 35.6 °F 29.9 °F 26.6 °F 70% 30.18 in 6.2 mi South 6.9 mph - N/A   Mostly Cloudy
3:50 PM 37.4 °F 31.4 °F 24.8 °F 60% 30.15 in 6.2 mi WSW 8.1 mph - N/A   Mostly Cloudy
4:50 PM 33.8 °F 27.7 °F 26.6 °F 75% 30.15 in 6.2 mi WSW 6.9 mph - N/A   Scattered Clouds
5:00 PM 33 °F - 26 °F 65%  in 6 mi WSW 6.9 mph - -   Partly Cloudy
5:50 PM 32.0 °F 23.6 °F 24.8 °F 75% 30.15 in 6.2 mi SW 10.4 mph - N/A   Scattered Clouds
6:50 PM 30.2 °F 22.6 °F 24.8 °F 80% 30.15 in 6.2 mi SW 8.1 mph - N/A   Scattered Clouds
7:50 PM 28.4 °F 20.4 °F 21.2 °F 74% 30.15 in 6.2 mi SSW 8.1 mph - N/A   Partly Cloudy
8:00 PM 28 °F - 22 °F 71%  in 6 mi SSW 8.1 mph - -   Scattered Clouds
8:50 PM 30.2 °F 22.6 °F 23.0 °F 75% 30.15 in 6.2 mi WSW 8.1 mph - N/A   Partly Cloudy
9:50 PM 26.6 °F 17.5 °F 21.2 °F 80% 30.12 in 6.2 mi West 9.2 mph - N/A   Partly Cloudy
10:50 PM 28.4 °F 20.4 °F 23.0 °F 80% 30.12 in 6.2 mi West 8.1 mph - N/A   Partly Cloudy
11:00 PM 29 °F - 23 °F 69%  in 6 mi West 8.1 mph - -   Scattered Clouds
11:50 PM 30.2 °F 17.4 °F 24.8 °F 80% 30.09 in 6.2 mi WSW 20.7 mph - N/A   Partly Cloudy